Home   Weather   Rome   Past weeks

Flag for Italy Past Weather in Rome, Italy — Yesterday and Last 2 Weeks

Now
55 °F

Broken clouds.


Feels Like: 53 °F
Forecast: 40 / 61 °F
Wind: 9 mph from Northeast

Location: Rome Fiumicino

Current Time: Feb 25, 2017 at 7:53:47 am

Latest Report: Feb 25, 2017 at 7:20 am


Visibility: 6 mi

Pressure: 29.80 "Hg

Humidity: 88%

Dew Point: 52 °F

Location of RomeLocation

Past Weather in Rome — Graph

°F

Rome Temperature Yesterday

Maximum temperature yesterday: 61 °F (at 1:20 pm)
Minimum temperature yesterday: 52 °F (at 12:20 am)
Average temperature yesterday: 57 °F

High & Low Weather Summary for the Past Weeks

 TemperatureHumidityPressure
High63 °F (Feb 12, 12:20 pm)100% (Feb 16, 4:20 am)30.57 "Hg (Feb 16, 4:20 am)
Low32 °F (Feb 21, 4:20 am)41% (Feb 21, 12:20 pm)29.71 "Hg (Feb 24, 6:50 pm)
Average50 °F77%30.22 "Hg
* Reported Feb 10 6:20 am — Feb 25 6:20 am, Rome, Weather by CustomWeather, © 2017

Note: Actual official high and low records may vary slightly from our data, if they occured in-between our weather recording intervals... More about our weather records

Advertising

Rome Weather History for the Previous 24 Hours

Scroll right to see more
 ConditionsComfort  
Time TempWeatherWind HumidityBarometerVisibility
6:20 am
Sat, Feb 25
55 °FPassing clouds.5 mph94%29.77 "HgN/A
5:50 am55 °FPassing clouds.6 mph94%29.77 "HgN/A
5:20 am55 °FPassing clouds.3 mph88%29.77 "HgN/A
4:20 am55 °FPassing clouds.5 mph88%29.74 "HgN/A
3:50 am55 °FPassing clouds.3 mph88%29.74 "HgN/A
3:20 am57 °FPassing clouds.2 mph82%29.74 "HgN/A
2:50 am57 °FPassing clouds.3 mph82%29.74 "HgN/A
2:20 am57 °FPassing clouds.10 mph82%29.74 "HgN/A
1:50 am59 °FPassing clouds.9 mph77%29.74 "HgN/A
1:20 am61 °FPassing clouds.10 mph72%29.74 "HgN/A
12:50 am59 °FPassing clouds.10 mph72%29.74 "HgN/A
12:20 am59 °FPassing clouds.14 mph72%29.74 "HgN/A
11:50 pm
Fri, Feb 24
59 °FPassing clouds.12 mph68%29.74 "HgN/A
11:20 pm59 °FPassing clouds.12 mph68%29.74 "HgN/A
10:50 pm59 °FPassing clouds.12 mph68%29.74 "HgN/A
10:20 pm59 °FPassing clouds.17 mph63%29.74 "HgN/A
9:50 pm59 °FPartly cloudy.13 mph63%29.74 "HgN/A
9:20 pm59 °FPassing clouds.15 mph63%29.74 "HgN/A
8:50 pm59 °FPassing clouds.20 mph63%29.74 "HgN/A
8:20 pm59 °FClear.15 mph68%29.74 "Hg10 mi
7:50 pm59 °FPassing clouds.16 mph68%29.74 "HgN/A
7:20 pm57 °FClear.20 mph72%29.74 "HgN/A
6:50 pm57 °FClear.23 mph72%29.71 "Hg10 mi
6:20 pm57 °FClear.21 mph72%29.74 "HgN/A
5:50 pm59 °FClear.9 mph68%29.77 "HgN/A
5:20 pm57 °FSunny.17 mph77%29.74 "Hg10 mi
4:50 pm57 °FSunny.15 mph82%29.77 "Hg10 mi
4:20 pm57 °FPassing clouds.20 mph82%29.77 "Hg6 mi
3:50 pm57 °FRain. Partly sunny.18 mph82%29.83 "Hg3 mi
3:20 pm59 °FScattered clouds.14 mph77%29.77 "HgN/A
2:50 pm61 °FScattered clouds.16 mph68%29.80 "HgN/A
2:20 pm61 °FScattered clouds.17 mph68%29.80 "HgN/A
1:50 pm61 °FScattered clouds.17 mph72%29.83 "HgN/A
1:20 pm61 °FPartly sunny.15 mph72%29.86 "HgN/A
12:50 pm59 °FPartly sunny.17 mph77%29.86 "HgN/A
12:20 pm59 °FScattered clouds.20 mph77%29.86 "HgN/A
11:50 am59 °FScattered clouds.21 mph77%29.92 "HgN/A
11:20 am59 °FLight rain. Partly sunny.16 mph82%29.95 "HgN/A
10:50 am57 °FLight rain. Partly sunny.15 mph82%29.95 "HgN/A
10:20 am55 °FLight rain. Scattered clouds.18 mph88%29.95 "HgN/A
9:50 am57 °FScattered clouds.14 mph82%29.95 "HgN/A
9:20 am57 °FPassing clouds.12 mph82%29.95 "HgN/A
8:50 am55 °FPassing clouds.20 mph82%29.89 "HgN/A
8:20 am54 °FLight rain. Scattered clouds.20 mph88%29.92 "HgN/A
7:50 am55 °FPassing clouds.15 mph82%29.98 "HgN/A
7:20 am55 °FPassing clouds.14 mph82%29.95 "HgN/A
Weather by CustomWeather, © 2017

See weather overviewHow to use our weather pages